THORAD DELTA 1 DEB, 8182

Orbit data source: Space-Track

THORAD DELTA 1 DEB, 8182 is space debris in SSO originally from a launch on Fri, 15 Nov 1974 UTC launched from the Air Force Western Test Range (AFWTR). Debris objects in space refer to the collection of defunct objects orbiting the Earth. Examples of debris include non-operational satellites, rocket bodies, and fragments generated from explosions, collisions, or faulty payload assembly.

Loading next visibility...
Identifier
8182, 1974-089AY
Orbit
SSO
Country
Flag of USUS
Related business
Manufacturer
Unknown
Mission
Spacecraft
Bus & Motor
Unknown
Mass
Unknown
Launch date (UTC)
1974-11-15 (51 years ago)
Launch vehicle
Unknown
Launch site
Air Force Western Test Range (AFWTR)
Object type
Payload
Rocket body
Debris
Shape & HBR
Unknown shape, 0.1 m
Radar Cross Section
Small (<0.1 m²)

Expand to show TLE details & history
Last TLE update: 8 hours ago

TLE from 8 hours ago
0 THORAD DELTA 1 DEB
1  8182U 74089AY  25289.04066502  .00003370  00000-0  14239-1 0  9999
2  8182 100.3529  18.9246 0138878 261.6956 280.4747 12.80751251335297
Epoch: 2025-10-16T00:58Z
TLE epoch observation values (Epoch: 2025-10-16T00:58:33.457Z)
Latitude
-0.70251°
Longitude
159.3514°
Altitude
1,323.171 km
Speed
7.204 km/s
True Right ascension
13h 15m 11s
True Declination
0° 41' 55"
Sunlit
Object was in daylight at epoch
Visualization orbit readout
Latitude
Unknown
Longitude
Unknown
Altitude
Unknown
Speed
Unknown
Apparent Right ascension
Unknown
Apparent Declination
Unknown
Sunlit
N/A
Visualization observer readout
Local Sidereal Time
03:36:29
Azimuth
Unknown
Elevation
Unknown
Doppler factor
Unknown
Orbital elements
Apogee altitude
1,443.009 km
Perigee altitude
1,228.748 km
Semi-major axis
7,714.015 km
Eccentricity
0.01389
Inclination
100.3529°
RAAN
18.9246°
Arg. of periapsis
261.6956°
True anomaly
278.90504°
Mean anomaly
280.4747°
Eccentric anomaly
279.69034°
Mean motion
3.20348 °/min
Orbital period
112.38 mins
BSTAR
0.014239
Loading maneuver chart data...
Computing Atmospheric mass density...

Documentation

Showing up to 5 results
|